Sidney, NE

4:38 AM MDT on April 30, 2017 (GMT -0600)
Sidney Municipal

Weather History for KSNY - December, 2013

Change the Weather History Date:

Saturday, December 28, 2013

  Actual Average Record
Temperature  
Mean Temperature - 28 °F  
Max Temperature - 41 °F 72 °F (1980)
Min Temperature - 16 °F -8 °F (1988)
Degree Days  
Heating Degree Days 37  
Month to date heating degree days 736 1017  
Since 1 July heating degree days 2228 2439  
Cooling Degree Days 0  
Month to date cooling degree days 0 0  
Year to date cooling degree days 918 830  
Moisture  
Dew Point -    
Average Humidity    
Maximum Humidity    
Minimum Humidity    
Precipitation  
Precipitation T in 0.01 in 0.15 in (1982)
Month to date precipitation 0.01 0.50  
Year to date precipitation 16.93 18.50  
Sea Level Pressure  
Sea Level Pressure 30.02 in    
Wind  
Wind Speed 19 mph (NNW)    
Max Wind Speed 33 mph    
Max Gust Speed 43 mph    
Visibility 10 miles    
Events      
T = Trace of Precipitation, MM = Missing Value Source: NWS Daily Summary

Daily Weather History Graph

Daily Weather History Graph

Search for Another Location

Airport or City:

Trip Planner

Search our weather history database for the weather conditions in past years. The results will help you decide how hot, cold, wet, or windy it might be!

Date:

Astronomy

Dec. 28, 2013 Rise Set
Actual Time 7:16 AM MST 4:31 PM MST
Civil Twilight 6:45 AM MST 5:02 PM MST
Nautical Twilight 6:10 AM MST 5:36 PM MST
Astronomical Twilight 5:37 AM MST 6:10 PM MST
Moon 2:54 AM MST (12/28) 1:24 PM MST (12/28)
Length of Visible Light 10h 16m
Length of Day
9h 14m
Waning Crescent, 18% of the Moon is Illuminated
Dec 28
Waning Crescent
Jan 1
New
Jan 7
First Quarter
Jan 15
Full
Jan 23
Last Quarter

Hourly Weather History & Observations

Time (MST) Temp. Dew Point Humidity Pressure Visibility Wind Dir Wind Speed Gust Speed Precip Events Conditions
12:53 AM - - N/A% 29.97 in 10.0 mi WSW 8.1 mph - N/A   Clear
1:53 AM - - N/A% 29.95 in 10.0 mi West 8.1 mph - N/A   Clear
2:53 AM - - N/A% 29.93 in 10.0 mi West 9.2 mph - N/A   Clear
3:53 AM - - N/A% 29.91 in 10.0 mi WSW 10.4 mph - N/A   Clear
4:53 AM - - N/A% 29.89 in 10.0 mi NW 5.8 mph - N/A   Clear
5:53 AM - - N/A% 29.87 in 10.0 mi WSW 5.8 mph - N/A   Clear
6:53 AM - - N/A% 29.85 in 10.0 mi West 13.8 mph - N/A   Clear
7:53 AM - - N/A% 29.84 in 10.0 mi West 5.8 mph - N/A   Clear
8:53 AM - - N/A% 29.86 in 10.0 mi WNW 19.6 mph - N/A   Clear
9:53 AM - - N/A% 29.87 in 10.0 mi WNW 21.9 mph - N/A   Clear
10:53 AM - - N/A% 29.87 in 10.0 mi NNW 28.8 mph 39.1 mph N/A   Clear
11:53 AM - - N/A% 29.89 in 10.0 mi North 33.4 mph 40.3 mph N/A   Clear
12:53 PM - - N/A% 29.91 in 10.0 mi North 24.2 mph 34.5 mph N/A   Clear
1:53 PM - - N/A% 29.93 in 10.0 mi NNE 24.2 mph 33.4 mph N/A   Clear
2:53 PM - - N/A% 29.95 in 10.0 mi NNE 21.9 mph - N/A   Clear
3:53 PM - - N/A% 29.99 in 10.0 mi North 24.2 mph 36.8 mph N/A   Overcast
4:53 PM - - N/A% 30.04 in 10.0 mi North 29.9 mph 36.8 mph N/A   Partly Cloudy
5:53 PM - - N/A% 30.08 in 10.0 mi North 21.9 mph 28.8 mph N/A   Clear
6:37 PM - - N/A% 30.09 in 10.0 mi North 26.5 mph 38.0 mph N/A   Mostly Cloudy
6:53 PM - - N/A% 30.11 in 10.0 mi North 24.2 mph 34.5 mph N/A   Mostly Cloudy
7:41 PM - - N/A% 30.14 in 10.0 mi NNE 20.7 mph 29.9 mph N/A   Overcast
7:53 PM - - N/A% 30.14 in 10.0 mi North 23.0 mph 27.6 mph N/A   Overcast
8:12 PM - - N/A% 30.15 in 10.0 mi North 26.5 mph 32.2 mph N/A   Overcast
8:53 PM - - N/A% 30.17 in 10.0 mi North 27.6 mph 34.5 mph N/A   Overcast
9:04 PM - - N/A% 30.17 in 10.0 mi North 25.3 mph 33.4 mph N/A   Overcast
9:53 PM - - N/A% 30.19 in 9.0 mi North 25.3 mph 32.2 mph 0.00 in   Overcast
10:53 PM - - N/A% 30.21 in 10.0 mi North 21.9 mph 28.8 mph N/A   Overcast
11:25 PM - - N/A% 30.22 in 10.0 mi North 25.3 mph 31.1 mph N/A   Overcast
11:50 PM - - N/A% 30.22 in 10.0 mi North 25.3 mph - N/A   Overcast
11:53 PM - - N/A% 30.22 in 10.0 mi North 23.0 mph 31.1 mph N/A   Overcast